Temp
14 14 14 15 15 15 15 15 14 14 14 14 13 12 12 12 12 12 12 12 11 9 7 10 11 11 11 11 10 10 10 10 10 10 10 10 10 10 10 10 11 11 11
14 14 14 14 14 15 15 14 14 14 14 13 13 12 12 12 12 12 11 11 11 10 8 10 9 10 10 10 10 9 9 9 10 10 10 10 10 10 10 10 10 10 10
14 14 14 14 14 14 14 13 13 13 13 13 12 11 11 11 11 11 11 11 10 10 9 9 9 8 9 9 9 9 9 9 9 9 10 10 9 9 9 9 10 10 10
13 13 13 13 14 14 13 13 13 13 12 12 12 11 10 10 10 10 10 10 9 9 9 9 8 8 8 8 7 7 8 8 8 8 9 9 8 9 9 9 9 9 9
13 13 13 13 13 13 13 12 12 12 12 11 10 10 9 9 9 9 9 9 8 8 8 8 8 8 8 7 6 6 6 7 8 8 8 8 8 8 8 8 8 8 8
13 13 12 13 13 13 12 11 11 11 11 10 9 8 8 8 7 8 8 8 8 7 7 8 8 7 7 7 7 6 6 7 7 7 7 7 7 7 7 7 8 8 8
12 13 11 12 11 12 12 12 10 10 9 9 9 7 6 6 6 6 6 6 7 7 7 7 7 6 6 6 6 6 6 6 6 7 6 7 7 7 7 7 7 7 7
12 12 12 12 11 12 12 11 10 10 9 9 8 7 5 4 4 5 5 5 6 6 6 6 6 6 5 5 5 5 5 5 5 6 6 6 6 6 6 6 6 6 6
12 12 11 12 11 12 12 11 11 10 10 8 8 9 6 6 4 4 4 4 5 5 4 5 5 5 5 4 4 4 4 5 5 5 5 5 5 5 5 5 5 6 5
12 11 11 11 10 11 11 11 10 10 10 9 7 8 9 9 5 4 4 4 3 4 4 4 4 4 3 3 3 3 4 4 4 4 4 4 4 4 4 4 4 4 4
12 11 11 10 10 10 10 10 10 9 9 9 9 7 8 8 8 7 3 3 3 3 3 3 3 3 3 3 2 2 3 3 3 3 3 3 3 3 3 4 3 3 3
12 11 10 10 10 9 9 10 9 9 9 8 8 8 8 7 7 7 6 4 3 2 2 2 3 2 2 2 2 2 2 3 3 3 3 3 3 2 2 2 2 3 3
11 10 10 9 8 8 9 9 9 8 8 7 7 7 7 7 7 7 7 5 2 2 1 1 1 1 1 1 1 1 1 1 2 2 2 2 2 2 2 1 1 1 1
11 11 9 9 8 7 7 7 7 7 7 7 6 6 6 6 6 6 6 6 2 1 1 1 2 2 1 1 0 0 -0 -0 0 1 1 1 1 1 1 1 1 1 0
7 9 8 8 7 6 6 6 6 6 6 6 5 5 4 4 5 4 5 5 4 2 1 2 1 1 1 -0 -1 -1 -1 -1 -1 -1 -1 -0 0 0 0 0 0 0 -0
6 7 7 7 6 6 5 5 5 5 5 4 4 4 4 3 3 2 2 3 3 3 3 2 1 2 0 -1 -2 -2 -2 -2 -1 -2 -2 -2 -2 -1 -1 -1 -1 -1 -1
6 5 5 6 6 5 4 4 4 4 3 2 3 3 3 2 2 1 1 2 2 2 3 1 1 0 -1 -2 -2 -3 -3 -3 -2 -3 -3 -3 -3 -3 -3 -2 -2 -2 -2
6 5 5 5 5 5 4 4 3 2 3 1 0 1 0 0 1 -1 0 -0 0 0 2 1 0 -1 -3 -3 -3 -3 -3 -3 -3 -3 -4 -4 -4 -4 -4 -3 -3 -3 -3
5 5 5 4 4 4 4 4 4 3 3 1 0 -0 -0 -0 -1 -1 -0 -1 -2 1 1 0 -1 -2 -3 -3 -3 -4 -4 -4 -4 -4 -4 -5 -4 -4 -4 -4 -4 -4 -4
7 6 6 4 5 4 4 3 3 2 1 1 -0 -0 -1 -1 -1 -0 -1 -1 -1 -1 -0 -2 -2 -2 -3 -4 -5 -4 -5 -5 -5 -5 -5 -5 -5 -5 -5 -5 -5 -5 -5
6 6 5 5 4 4 3 3 2 2 1 0 -0 -1 -1 -1 -1 -1 -2 -2 -2 -2 -2 -4 -3 -4 -4 -6 -6 -5 -6 -5 -5 -5 -5 -5 -5 -5 -6 -6 -6 -6 -6
6 6 5 5 4 3 3 2 2 1 1 -0 -0 -1 -1 -3 -2 -4 -4 -3 -3 -3 -4 -4 -4 -5 -6 -6 -5 -6 -6 -6 -7 -6 -6 -5 -6 -6 -6 -6 -6 -6 -6
6 5 5 5 4 4 3 2 2 1 1 -0 -1 -2 -2 -3 -3 -4 -4 -4 -4 -4 -4 -5 -6 -5 -5 -6 -7 -6 -7 -7 -7 -7 -7 -6 -7 -7 -7 -6 -7 -6 -6
6 5 5 5 5 4 3 2 1 0 -0 -1 -2 -2 -2 -3 -4 -4 -4 -4 -4 -5 -6 -6 -7 -7 -6 -7 -7 -7 -7 -8 -8 -8 -9 -10 -8 -8 -8 -8 -8 -7 -8
5 5 5 4 4 3 2 2 1 -0 -1 -2 -2 -3 -4 -4 -4 -4 -4 -5 -6 -6 -7 -8 -7 -7 -7 -7 -7 -7 -8 -8 -9 -9 -10 -11 -10 -10 -10 -9 -9 -9 -10
4 5 5 4 3 2 2 1 0 -1 -2 -2 -4 -5 -5 -5 -4 -5 -6 -6 -7 -7 -7 -8 -7 -8 -8 -8 -9 -9 -10 -11 -12 -12 -12 -13 -13 -13 -14 -12 -12 -12 -12
Height
1506 1510 1513 1515 1518 1519 1521 1523 1525 1526 1528 1529 1531 1533 1534 1535 1536 1537 1538 1538 1539 1539 1539 1538 1538 1538 1538 1538 1538 1537 1536 1535 1534 1534 1533 1533 1532 1531 1531 1530 1528 1528 1528
1503 1506 1508 1511 1514 1516 1518 1521 1523 1525 1526 1528 1529 1531 1533 1534 1535 1536 1537 1538 1538 1538 1538 1539 1539 1538 1538 1538 1538 1537 1536 1536 1535 1534 1533 1533 1533 1531 1531 1529 1527 1527 1526
1499 1502 1505 1507 1510 1513 1515 1517 1520 1522 1524 1525 1527 1529 1531 1532 1534 1535 1536 1537 1537 1537 1538 1538 1539 1539 1538 1538 1538 1538 1537 1536 1536 1535 1534 1534 1535 1533 1531 1530 1528 1527 1526
1497 1501 1501 1503 1507 1510 1512 1514 1515 1519 1522 1523 1524 1526 1529 1531 1532 1534 1535 1536 1537 1537 1537 1537 1538 1539 1539 1538 1538 1538 1537 1537 1536 1535 1535 1534 1536 1534 1532 1531 1529 1528 1527
1490 1495 1500 1501 1503 1505 1508 1510 1512 1515 1518 1521 1524 1525 1527 1530 1531 1532 1533 1534 1535 1536 1536 1536 1538 1538 1539 1538 1538 1538 1537 1537 1536 1536 1535 1535 1535 1534 1532 1531 1529 1528 1527
1482 1487 1493 1497 1499 1500 1504 1507 1510 1512 1516 1520 1522 1525 1526 1528 1530 1531 1532 1532 1533 1535 1535 1536 1537 1538 1538 1539 1539 1539 1538 1537 1537 1536 1536 1535 1535 1534 1533 1531 1530 1529 1528
1473 1478 1486 1487 1492 1494 1498 1503 1506 1509 1512 1515 1519 1522 1525 1526 1528 1529 1530 1531 1532 1533 1534 1535 1536 1537 1538 1538 1538 1539 1538 1537 1537 1537 1536 1536 1535 1534 1533 1531 1530 1529 1527
1467 1472 1477 1480 1487 1489 1493 1496 1501 1503 1505 1509 1512 1517 1522 1525 1525 1526 1528 1529 1531 1532 1532 1533 1534 1536 1537 1537 1537 1538 1538 1537 1537 1537 1537 1536 1535 1534 1532 1531 1530 1529 1527
1456 1461 1466 1469 1476 1481 1486 1488 1493 1498 1499 1503 1506 1510 1513 1515 1519 1523 1524 1526 1529 1530 1531 1531 1532 1534 1535 1536 1536 1537 1537 1536 1537 1536 1537 1536 1535 1534 1532 1531 1530 1528 1527
1445 1450 1458 1464 1470 1473 1477 1482 1486 1490 1494 1497 1501 1504 1504 1506 1511 1517 1521 1522 1526 1528 1529 1529 1530 1532 1533 1534 1535 1535 1535 1535 1535 1535 1536 1535 1534 1533 1532 1531 1529 1527 1526
1435 1441 1447 1453 1458 1463 1470 1475 1481 1483 1487 1492 1494 1498 1500 1502 1505 1507 1510 1515 1520 1524 1527 1529 1529 1531 1532 1533 1533 1533 1534 1534 1534 1534 1534 1534 1533 1532 1531 1529 1528 1526 1525
1424 1427 1434 1440 1446 1453 1460 1465 1474 1478 1481 1486 1490 1494 1496 1497 1500 1504 1506 1510 1515 1520 1525 1527 1528 1530 1532 1533 1532 1532 1532 1532 1532 1533 1532 1531 1531 1531 1530 1529 1528 1526 1524
1407 1415 1422 1427 1434 1442 1451 1458 1466 1471 1475 1480 1486 1490 1494 1496 1499 1502 1505 1507 1509 1515 1521 1524 1525 1528 1530 1531 1532 1531 1531 1530 1530 1531 1530 1530 1529 1530 1529 1528 1526 1525 1523
1396 1402 1409 1417 1425 1433 1443 1450 1456 1463 1468 1474 1480 1485 1489 1493 1496 1498 1501 1503 1509 1510 1514 1516 1520 1523 1526 1528 1529 1529 1529 1529 1528 1528 1528 1527 1526 1526 1526 1525 1524 1523 1521
1385 1393 1402 1411 1419 1426 1435 1443 1448 1452 1458 1465 1470 1476 1482 1489 1491 1493 1495 1499 1504 1506 1511 1513 1514 1517 1521 1524 1526 1526 1526 1525 1525 1525 1524 1523 1523 1523 1522 1522 1521 1520 1518
1396 1394 1401 1410 1415 1421 1428 1435 1441 1446 1452 1456 1462 1472 1471 1479 1480 1487 1493 1497 1499 1502 1506 1507 1509 1512 1517 1520 1523 1524 1523 1522 1521 1521 1521 1520 1519 1519 1518 1517 1516 1514 1513
1399 1399 1404 1406 1410 1415 1422 1428 1434 1440 1444 1450 1457 1461 1466 1472 1477 1480 1490 1492 1493 1499 1500 1502 1504 1508 1512 1516 1518 1519 1519 1518 1518 1518 1517 1516 1516 1515 1514 1513 1512 1510 1509
1400 1404 1407 1408 1409 1413 1417 1422 1427 1433 1438 1443 1448 1452 1460 1463 1468 1474 1479 1483 1488 1493 1494 1497 1500 1504 1507 1510 1512 1514 1515 1514 1514 1513 1512 1512 1512 1511 1510 1509 1508 1506 1504
1395 1401 1404 1407 1408 1409 1414 1417 1422 1427 1431 1435 1440 1445 1451 1456 1461 1466 1471 1476 1481 1486 1488 1492 1494 1498 1501 1504 1507 1509 1511 1511 1511 1510 1508 1508 1507 1505 1505 1504 1503 1500 1499
1393 1396 1400 1403 1406 1406 1410 1415 1417 1422 1428 1432 1437 1442 1447 1451 1456 1461 1465 1470 1477 1479 1482 1487 1492 1495 1497 1499 1502 1505 1506 1506 1506 1506 1504 1503 1502 1500 1499 1498 1496 1494 1492
1393 1392 1394 1400 1399 1404 1406 1409 1414 1419 1422 1427 1433 1438 1443 1448 1453 1458 1462 1467 1472 1475 1479 1484 1487 1489 1491 1493 1497 1500 1502 1503 1502 1501 1500 1499 1497 1494 1492 1491 1491 1489 1486
1388 1389 1390 1392 1397 1401 1405 1408 1413 1416 1420 1424 1431 1436 1439 1445 1450 1455 1461 1466 1470 1472 1475 1478 1481 1482 1485 1489 1491 1492 1494 1496 1498 1495 1491 1494 1492 1490 1485 1485 1484 1480 1478
1387 1386 1387 1386 1395 1399 1401 1405 1410 1414 1417 1421 1426 1432 1434 1439 1446 1453 1458 1462 1466 1468 1470 1473 1476 1479 1481 1483 1485 1486 1487 1487 1488 1490 1484 1487 1484 1481 1479 1480 1477 1473 1471
1382 1384 1385 1386 1390 1396 1399 1401 1407 1412 1416 1419 1424 1428 1432 1438 1444 1451 1456 1459 1462 1465 1468 1470 1471 1474 1476 1477 1479 1480 1480 1481 1482 1483 1480 1476 1477 1473 1471 1470 1469 1467 1464
1378 1379 1380 1382 1385 1392 1395 1398 1402 1408 1413 1416 1422 1427 1431 1439 1443 1448 1452 1455 1459 1462 1465 1467 1469 1469 1471 1471 1472 1474 1475 1477 1475 1477 1473 1471 1468 1464 1465 1461 1461 1459 1458
1373 1372 1374 1378 1383 1388 1389 1393 1397 1405 1409 1412 1419 1426 1431 1437 1442 1444 1449 1452 1454 1459 1462 1463 1466 1466 1468 1468 1468 1468 1469 1471 1473 1469 1471 1467 1465 1460 1455 1452 1452 1452 1450
Wind_Speed
28 27 26 26 24 22 21 22 22 21 20 18 17 15 13 11 8 6 4 3 3 4 5 1 3 4 4 4 5 6 6 7 7 7 7 7 6 6 6 6 6 5 5
30 30 29 28 27 24 23 22 22 21 21 19 18 16 14 12 9 7 5 5 6 8 7 1 2 3 3 4 4 5 5 7 7 8 8 8 8 7 7 7 7 8 7
31 31 31 31 29 26 25 24 23 23 22 21 18 17 15 13 10 8 6 6 7 6 5 4 1 1 3 3 3 4 4 5 6 6 6 7 7 8 8 8 8 8 7
33 33 33 33 30 29 27 26 26 25 24 22 21 19 16 13 11 9 7 7 6 7 7 5 3 2 2 2 3 4 4 5 6 6 7 7 8 8 8 8 8 8 8
35 35 34 32 32 31 30 29 28 25 25 23 21 19 16 13 11 10 9 8 8 7 6 5 3 3 2 1 2 3 4 5 5 6 7 7 8 8 9 9 10 10 10
39 39 38 35 34 34 32 30 28 26 24 24 22 19 15 12 10 10 10 9 9 8 7 5 3 2 2 1 1 2 3 4 5 5 6 6 6 7 8 9 9 10 10
48 45 43 39 38 37 35 32 30 28 27 26 25 21 16 13 11 12 9 9 9 9 7 6 4 3 2 2 1 1 2 3 3 4 5 6 7 8 9 9 9 10 10
47 46 45 41 40 39 37 35 33 34 31 31 30 27 16 15 16 15 12 10 10 10 9 8 6 4 4 3 2 2 2 2 3 4 5 6 7 8 9 10 11 12 12
50 51 51 46 44 42 41 39 38 37 37 36 35 22 11 12 23 20 18 15 14 12 10 8 6 6 5 4 4 4 4 3 3 4 5 6 7 8 9 10 11 12 12
52 51 47 44 44 42 43 41 40 40 38 40 39 37 16 11 14 14 24 21 19 16 12 11 8 7 6 5 4 5 6 5 4 4 6 7 8 9 10 10 11 12 12
54 51 48 44 45 44 43 42 41 41 41 42 42 41 30 16 14 11 19 30 27 22 16 13 9 8 7 7 6 7 6 5 5 6 6 7 8 9 10 11 12 12 13
55 53 49 47 46 45 45 42 42 40 41 41 40 41 38 30 21 15 10 26 30 25 21 17 14 11 9 9 7 7 7 7 7 8 8 8 9 9 10 11 12 13 14
55 54 49 47 45 43 42 41 38 37 38 39 39 41 40 36 28 21 16 17 26 24 22 20 16 14 12 11 9 8 7 8 9 10 10 10 10 9 10 10 11 12 14
55 53 50 46 44 41 39 39 36 36 36 36 37 33 38 31 28 26 19 16 15 20 27 24 22 20 19 15 12 10 9 10 13 13 13 12 12 12 11 11 12 13 15
38 46 45 40 39 37 37 39 39 39 38 35 31 30 30 31 23 18 16 14 16 17 24 26 24 24 23 19 16 12 12 12 12 13 13 14 14 14 15 15 16 17 17
36 35 35 37 35 34 37 36 35 37 35 31 31 34 31 26 22 18 15 16 15 18 24 25 26 25 26 23 19 15 14 14 14 13 14 14 15 16 18 19 19 20 21
26 27 33 34 30 33 35 35 34 34 34 33 35 34 34 36 31 27 25 18 15 21 22 23 24 24 23 24 22 17 17 17 16 14 15 15 16 18 21 22 22 23 24
25 23 25 29 29 30 31 31 31 36 37 41 43 41 37 34 39 28 29 24 23 26 27 20 16 20 25 26 21 21 21 19 19 18 17 18 19 22 23 23 23 24 26
8 17 24 27 30 27 28 28 28 28 33 31 34 39 42 33 31 34 31 26 21 25 22 21 19 24 28 25 23 22 21 20 20 21 22 22 23 23 24 23 23 25 26
17 19 19 26 22 27 25 28 27 27 27 27 28 28 29 31 33 33 29 25 25 23 20 15 22 26 26 22 23 23 22 22 22 24 25 23 23 23 24 24 23 24 25
21 18 25 23 24 26 27 27 27 25 24 24 23 25 26 24 23 21 21 24 26 20 22 21 24 28 28 23 24 23 21 22 23 23 23 22 22 23 23 22 21 22 25
20 22 20 20 25 26 26 25 24 23 23 23 24 22 21 21 22 19 22 21 20 20 19 23 23 19 18 22 20 20 19 19 19 20 23 19 24 23 23 21 23 24 27
24 21 20 18 23 24 24 24 24 24 23 22 23 23 24 24 23 22 23 22 20 21 21 18 16 19 20 18 20 22 21 20 19 18 23 22 21 23 24 23 25 27 28
25 24 20 20 19 24 26 25 24 25 23 20 21 22 21 21 21 22 21 21 21 20 19 17 17 20 22 21 19 18 18 18 18 17 20 22 21 24 27 27 27 26 26
27 19 20 21 22 25 27 27 23 25 22 21 21 19 19 20 20 19 18 17 18 17 17 18 19 16 16 17 17 16 15 17 17 18 19 19 20 30 32 30 26 22 19
27 22 23 24 25 26 27 26 24 24 24 22 21 23 21 20 19 17 15 16 15 14 13 13 13 13 13 13 13 12 13 14 16 14 12 21 28 28 23 28 22 34 36
Wind_Direction
214 211 209 208 210 207 206 203 199 205 207 209 211 216 222 223 222 218 213 185 166 157 129 19 49 47 46 38 23 29 30 25 26 30 33 31 31 34 32 27 17 354 334
218 215 212 210 211 209 209 206 205 208 210 213 214 216 215 215 211 211 199 185 187 187 193 341 37 19 25 39 38 37 36 35 33 34 38 33 36 39 38 36 31 23 11
219 219 216 213 213 211 207 205 206 209 212 212 215 214 212 212 213 210 204 194 200 208 214 220 275 350 6 19 31 36 33 34 32 31 30 25 24 33 35 34 36 31 18
224 223 220 216 214 212 210 210 210 211 212 214 212 210 211 211 209 212 206 200 197 198 206 221 217 265 326 2 30 42 42 46 45 46 48 46 39 40 38 38 35 36 31
225 224 224 216 214 215 213 213 211 214 210 209 209 207 207 210 217 213 209 208 208 205 206 212 221 250 260 251 75 63 54 51 47 44 44 44 38 35 32 26 26 26 24
226 224 221 218 218 218 216 213 214 210 215 209 200 199 200 207 215 215 210 211 210 211 213 226 229 240 233 230 8 40 34 30 32 30 31 28 22 17 15 15 13 11 7
224 221 221 217 220 221 220 216 213 212 203 207 198 188 189 199 208 210 217 217 213 212 216 228 232 237 218 242 305 356 353 10 5 5 7 4 2 3 1 360 358 357 358
229 225 223 224 225 222 220 219 216 207 206 207 202 189 181 200 206 213 220 224 223 217 222 225 232 244 255 267 274 269 276 311 334 344 347 350 351 349 349 350 348 347 350
226 224 224 222 224 223 223 220 220 221 212 204 208 197 179 208 202 212 216 220 226 226 229 231 241 251 254 261 266 270 263 280 303 320 329 332 333 334 336 341 341 341 342
224 221 224 225 227 225 225 226 223 225 225 216 207 211 212 204 181 195 210 217 223 228 235 232 243 246 253 263 270 274 267 270 285 296 305 314 320 326 330 332 333 336 338
224 220 219 221 225 225 228 228 226 225 227 225 222 213 216 215 204 190 199 207 213 220 228 234 240 238 247 260 264 264 265 274 281 289 298 308 317 320 324 326 330 334 336
219 216 218 220 222 223 225 225 226 227 225 229 230 228 224 218 212 211 205 207 209 213 218 223 225 228 247 261 264 271 282 284 290 293 293 297 302 314 323 325 327 328 331
217 217 218 219 220 220 225 223 224 225 224 228 230 231 230 233 233 238 234 205 201 208 209 221 223 228 246 249 254 268 294 296 293 292 293 298 305 315 317 317 321 325 328
225 222 219 219 219 219 220 222 223 224 221 226 229 228 231 233 239 240 238 228 191 194 209 217 220 240 234 242 245 252 274 294 304 307 307 304 304 308 310 312 315 322 326
223 222 218 218 220 218 217 220 222 223 218 215 221 230 234 236 230 230 225 229 226 206 217 226 233 229 230 233 242 251 267 282 294 302 302 304 309 309 311 311 317 320 320
240 236 222 219 221 217 216 219 217 219 227 230 227 217 209 207 214 228 236 225 236 252 235 235 228 230 222 225 233 243 258 269 281 294 297 305 308 310 308 309 313 315 315
262 244 227 217 223 218 215 216 216 218 221 217 211 216 223 231 235 234 239 245 236 234 237 224 227 226 217 217 222 231 249 261 278 284 287 296 300 301 305 309 310 310 309
262 260 246 227 224 223 225 228 227 217 220 225 228 237 235 236 249 220 234 229 234 232 228 227 211 218 213 208 218 232 245 260 274 279 282 289 293 296 296 298 301 303 302
293 276 246 239 230 229 229 227 229 234 239 237 237 237 243 230 221 228 235 225 221 218 211 230 240 209 203 209 220 232 239 254 265 271 277 284 289 291 292 294 296 295 297
282 249 267 241 254 233 233 229 227 230 234 237 235 240 235 243 238 241 222 220 214 222 245 228 214 212 210 212 224 227 234 246 257 268 276 281 283 286 292 295 296 296 296
267 263 244 255 243 241 235 229 228 226 225 229 233 228 234 234 225 224 216 210 215 215 219 209 215 223 227 222 227 232 243 252 257 263 269 275 279 284 288 292 295 294 294
270 255 255 257 251 244 245 240 232 225 225 230 225 226 221 219 220 205 210 211 221 224 230 234 233 233 228 223 233 246 255 266 272 272 273 272 284 287 290 292 294 294 294
265 259 255 255 252 251 252 243 233 229 228 225 218 221 217 218 212 213 215 215 218 236 242 229 220 224 230 240 251 263 265 267 273 276 283 288 287 293 293 295 297 298 298
259 253 249 251 248 251 245 243 236 224 226 221 222 225 222 214 207 212 215 241 243 235 232 233 232 236 247 255 253 252 259 269 277 283 289 298 298 296 298 306 307 303 300
252 252 255 246 244 240 237 237 230 219 217 216 219 214 203 207 212 229 239 238 234 235 235 234 243 242 241 244 246 255 268 276 285 291 300 299 305 308 308 310 308 306 298
246 235 243 236 241 233 231 234 229 217 207 206 199 198 204 217 237 241 236 231 227 227 230 236 234 237 243 247 263 270 273 285 293 308 304 312 315 320 317 314 307 305 302